SCP
0 0 0 0 -0 -0 -0 -0 0 0 -0 0 0 -0 -0 -0 -0 -0 -0 -0 -0 -0 -0 -0 -0 -0 -0 -0 -0 -0 -0 -0 -0 -0 -0 -0 -0 -0 -0 -0 -0 -0 -0
0 0 0 0 0 -0 -0 -0 -0 0 0 0 0 0 -0 -0 -0 -0 -0 -0 -0 -0 -0 -0 -0 -0 -0 -0 -0 -0 -0 -0 -0 0 0 -0 -0 -0 -0 -0 -0 -0 -0
0 0 0 0 0 -0 0 0 0 0 0 0 0 0 -0 -0 -0 -0 -0 -0 -0 -0 -0 -0 -0 -0 -0 -0 -0 -0 -0 -0 -0 0 0 0 -0 -0 -0 -0 -0 -0 -0
0 0 0 0 0 0 0 0 0 0 0 0 0 0 0 -0 -0 -0 -0 -0 -0 -0 -0 -0 -0 -0 -0 -0 -0 -0 -0 -0 0 0 0 0 0 -0 -0 -0 -0 -0 -0
0 0 0 0 0 0 0 -0 0 0 0 0 0 0 -0 -0 -0 -0 -0 -0 -0 -0 -0 -0 -0 -0 -0 -0 0 0 0 0 0 0 0 0 0 0 -0 -0 -0 -0 -0
0 0 0 0 0 0 0 0 0 -0 0 0 0 0 -0 -0 -0 -0 -0 -0 -0 -0 -0 -0 -0 -0 -0 -0 0 0 0 0 0 0 0 0 0 -0 -0 -0 -0 -0 -0
-0 0 0 0 0 0 0 0 0 0 -0 0 0 0 0 0 -0 -0 -0 -0 -0 0 -0 0 -0 -0 -0 -0 -0 0 0 0 0 0 0 0 0 -0 -0 -0 -0 0 0
-0 -0 -0 0 0 0 0 0 -0 -0 0 0 -0 -0 -0 -0 -0 -0 -0 -0 -0 -0 0 -0 -0 -0 -0 -0 -0 0 0 -0 0 0 0 0 0 0 0 0 0 0 0
-0 -0 -0 -0 -0 0 0 0 -0 -0 -0 0 0 -0 -0 -0 -0 -0 -0 -0 -0 -0 -0 0 -0 -0 -0 -0 0 0 0 0 0 0 0 0 0 0 0 0 0 0 0
-0 -0 -0 -0 -0 -0 -0 -0 -0 0 -0 -0 0 0 -0 -0 -0 -0 -0 -0 0 0 0 0 0 0 0 0 0 0 0 0 0 0 0 0 0 0 0 0 0 0 0
-0 -0 -0 -0 -0 -0 -0 -0 -0 -0 -0 -0 -0 -0 0 0 -0 0 -0 -0 0 0 0 0 0 0 0 0 0 0 0 0 0 0 0 0 0 0 0 0 0 0 0
-0 -0 -0 -0 -0 -0 -0 -0 -0 -0 -0 -0 -0 -0 0 -0 -0 -0 -0 -0 -0 -0 -0 0 0 0 0 0 0 0 0 0 0 0 0 0 0 0 0 0 0 0 0
-0 -0 -0 -0 -0 -0 -0 -0 -0 -0 -0 -0 -0 -0 -0 0 0 0 0 0 0 -0 0 0 0 0 0 0 0 0 0 0 0 0 0 0 0 0 0 0 0 0 0
-0 -0 -0 -0 -0 -0 -0 -0 -0 -0 -0 -0 -0 -0 -0 -0 0 0 0 0 0 -0 0 0 0 0 0 0 0 0 0 0 0 0 0 0 0 0 0 0 0 0 0
-0 -0 -0 -0 -0 -0 -0 -0 -0 -0 -0 -0 -0 -0 0 0 0 0 0 0 0 0 0 0 0 0 0 0 0 0 0 0 0 0 0 0 0 0 0 0 0 0 0
0 0 -0 -0 -0 -0 0 -0 -0 0 0 0 0 0 -0 0 0 0 0 0 0 0 0 0 0 0 0 0 0 0 0 0 0 0 0 0 0 0 0 0 0 0 0
0 0 0 -0 -0 -0 -0 0 0 0 0 0 0 0 0 0 0 0 0 0 0 0 0 0 0 0 0 0 0 0 0 0 0 0 0 0 0 0 0 0 0 0 0
0 0 0 0 0 0 0 0 0 0 0 0 0 0 0 0 0 0 0 0 0 0 0 0 0 0 0 0 0 0 0 0 0 0 0 0 0 0 0 0 0 0 0
0 0 0 0 0 0 0 0 0 0 0 0 0 0 0 0 0 0 0 0 0 0 0 0 0 0 0 0 0 0 0 0 0 0 0 0 0 0 0 0 0 0 0
0 0 0 0 0 0 0 0 0 0 0 0 0 0 0 0 0 0 0 0 0 0 0 0 0 0 0 0 0 0 0 0 0 0 0 0 0 0 0 0 0 0 0
0 0 0 0 0 0 0 0 0 0 0 0 0 0 0 0 0 0 0 0 0 0 0 0 0 0 0 0 0 0 0 0 0 0 0 0 0 0 0 0 0 0 0
0 0 0 0 0 0 0 0 0 0 0 0 0 0 0 0 0 0 0 0 0 0 0 0 0 0 0 0 0 0 0 0 0 0 0 0 0 0 0 0 0 0 0
0 0 0 0 0 0 0 0 0 0 0 0 0 0 0 0 0 0 0 0 0 0 0 0 0 0 0 0 0 0 0 0 0 0 0 0 0 0 0 0 0 0 0
0 0 0 0 0 0 0 0 0 0 0 0 0 0 0 0 0 0 0 0 0 0 0 0 0 0 0 0 0 0 0 0 0 0 0 0 0 0 0 0 0 0 0
0 0 0 0 0 0 0 0 0 0 0 0 0 0 0 0 0 0 0 0 0 0 0 0 0 0 0 0 0 0 0 0 0 0 0 0 0 0 0 0 0 0 0
0 0 0 0 0 0 0 0 0 0 0 0 0 0 0 0 0 0 0 0 0 0 0 0 0 0 0 0 0 0 0 0 0 0 0 0 0 0 0 0 0 0 0
Wind_Speed_500mb
20 18 9 8 12 16 13 15 18 20 23 22 22 23 22 22 25 27 25 25 24 29 29 31 30 29 26 26 24 23 22 22 22 22 20 21 20 21 23 22 22 25 19
26 18 14 12 16 22 16 19 18 18 20 23 17 16 18 22 26 27 27 26 23 26 26 26 24 21 20 19 17 17 17 17 17 19 20 22 21 19 25 28 25 23 18
24 21 19 15 22 26 19 18 17 18 19 21 21 22 28 26 25 25 22 21 23 22 26 26 24 23 21 19 17 16 17 17 18 18 28 30 28 27 29 28 28 32 38
27 25 22 19 28 26 17 20 23 22 23 26 32 32 27 22 22 23 22 21 19 22 27 28 27 27 26 25 25 25 24 23 22 28 30 27 27 23 25 28 27 31 36
29 29 25 21 28 25 16 23 26 28 28 29 28 33 32 30 24 22 19 16 22 24 29 29 30 30 30 29 26 25 26 28 29 33 32 29 27 27 27 23 27 30 31
32 29 25 23 21 23 18 17 22 23 26 27 26 25 25 29 31 24 15 17 16 26 26 28 28 29 29 28 28 28 30 27 35 32 31 31 26 31 28 28 23 22 18
33 29 25 21 22 21 18 18 18 22 27 28 27 26 25 26 25 24 18 17 21 25 25 26 25 26 27 27 27 27 28 28 27 26 27 25 25 27 25 27 24 20 17
32 31 26 22 21 21 19 17 18 20 24 22 22 23 22 21 21 20 16 23 22 23 24 23 22 23 25 26 26 26 26 26 26 28 27 26 25 25 25 26 25 22 19
32 31 28 24 22 21 20 18 17 18 20 18 17 16 16 16 18 15 12 18 20 21 21 20 19 20 22 24 24 24 22 22 23 24 23 21 20 22 24 23 22 21 21
36 33 30 27 23 21 19 18 16 14 15 14 13 13 13 13 12 11 8 12 16 17 16 16 16 16 17 19 20 21 21 18 19 19 18 16 16 21 21 22 22 21 21
41 37 33 30 27 24 20 18 16 14 12 10 11 10 10 10 10 9 6 7 10 10 10 11 12 13 14 15 15 17 18 17 16 15 13 16 17 18 20 20 20 20 19
48 43 37 32 30 26 23 19 17 15 12 9 8 7 7 7 7 7 5 3 4 4 5 7 9 10 11 11 11 12 13 14 13 12 11 13 14 15 16 17 17 18 18
47 46 41 36 32 28 25 22 19 16 13 10 7 5 4 4 4 5 4 2 0 1 0 2 5 6 6 7 7 7 7 8 9 9 9 9 11 11 12 14 16 17 18
50 46 42 39 35 32 27 23 20 18 15 13 10 7 5 3 4 2 2 2 1 3 4 4 4 4 6 5 6 6 5 5 5 6 8 8 9 10 12 14 16 18 18
52 49 44 41 38 35 32 28 25 23 20 18 16 12 9 8 7 7 5 4 5 5 5 6 7 8 8 8 8 7 8 8 9 10 11 10 13 15 16 18 20 24 27
55 51 46 43 39 37 35 32 29 27 25 24 22 19 17 16 14 12 12 10 9 8 8 8 9 12 14 14 14 14 13 13 14 15 16 18 18 18 19 21 24 25 27
56 51 49 43 41 40 38 36 34 31 29 28 27 26 25 22 20 18 18 17 15 13 12 13 14 14 15 16 18 19 21 21 20 20 21 21 22 23 26 28 30 31 32
50 51 46 46 43 40 39 39 39 36 35 34 33 32 31 29 27 26 24 21 18 17 17 18 19 19 20 20 21 22 24 26 27 27 27 28 28 29 31 33 34 33 36
40 42 44 44 43 40 37 37 38 40 41 38 38 36 35 34 32 29 27 22 24 26 26 26 26 25 25 26 25 25 28 29 32 32 31 30 31 32 36 34 31 33 39
42 43 43 44 43 40 38 39 39 40 41 40 42 41 40 39 31 35 32 30 30 30 29 29 30 30 30 30 32 33 35 26 28 31 31 32 32 32 24 28 35 37 34
46 49 50 51 50 47 50 49 48 47 43 40 38 43 45 39 35 36 34 34 34 35 31 31 32 30 30 31 37 35 29 29 29 26 26 29 29 21 31 39 35 38 35
51 53 54 57 55 53 54 54 51 48 47 42 38 36 36 38 39 39 40 39 38 38 39 37 38 37 35 32 35 37 32 26 33 27 27 28 26 35 36 36 37 37 34
61 59 57 54 53 55 54 55 56 56 57 53 51 43 41 42 37 41 41 43 45 43 45 42 43 43 43 40 35 35 25 21 28 32 34 37 38 35 38 36 35 38 41
62 61 56 54 55 57 57 60 63 57 60 52 47 40 38 40 39 42 44 48 47 46 49 47 44 46 45 48 49 50 53 54 39 33 48 45 48 43 38 36 47 43 41
57 58 58 57 58 58 63 63 64 62 61 55 54 50 46 44 43 43 43 41 44 48 48 45 48 51 52 52 56 61 59 63 57 61 48 41 46 46 37 46 46 38 37
56 59 60 61 60 59 59 64 67 63 61 61 60 57 53 52 52 49 46 44 40 44 43 40 42 47 45 49 56 58 56 60 60 62 64 52 46 45 41 37 36 33 29
Wind_Direction_500mb
142 140 119 115 119 126 121 116 126 132 130 118 110 102 93 93 96 94 90 86 91 98 102 97 91 85 82 80 78 80 82 80 75 71 60 62 58 59 54 48 53 60 62
141 142 118 125 115 117 113 102 116 136 140 134 122 105 92 98 102 100 98 92 95 100 97 89 81 80 76 75 73 70 67 65 62 53 44 52 51 50 51 55 57 55 52
142 128 116 117 114 110 105 91 102 125 137 138 126 104 98 98 104 101 109 108 99 95 87 80 75 72 70 68 69 66 63 57 52 50 58 57 60 55 69 70 67 62 72
137 127 114 113 116 109 116 92 97 108 123 128 123 111 101 96 101 107 103 101 90 89 88 80 71 66 66 68 68 68 67 67 71 74 72 75 65 55 68 71 64 71 74
141 132 120 115 122 129 123 96 96 102 107 119 138 138 133 120 96 91 101 103 98 90 87 77 70 66 68 70 71 71 74 79 80 71 75 76 66 59 67 74 65 82 84
144 137 126 122 127 128 116 100 93 97 108 111 115 119 125 130 117 107 100 114 118 89 83 78 74 70 70 68 71 77 79 78 74 71 71 69 72 72 67 69 74 84 96
147 143 134 130 127 124 115 106 97 94 99 108 107 105 104 123 138 125 103 101 107 96 86 81 74 68 64 62 71 75 77 75 75 74 74 74 66 62 66 62 66 66 70
155 152 145 140 133 127 121 113 109 100 106 108 100 98 96 96 104 115 102 96 100 94 84 77 70 65 60 60 70 71 74 75 71 76 77 73 68 66 63 59 60 58 59
166 161 155 152 145 138 131 125 120 107 109 102 100 97 96 89 90 105 98 93 95 87 79 72 66 64 61 63 67 70 73 75 76 76 75 73 67 62 59 55 54 55 52
174 175 168 163 156 149 143 135 131 123 117 116 107 102 97 91 85 98 83 89 91 88 80 72 67 68 65 65 65 67 68 72 77 77 72 73 67 63 57 53 50 50 49
181 183 181 175 169 163 160 153 149 145 135 125 113 106 101 100 96 100 110 94 99 93 82 71 66 62 60 60 61 63 65 69 79 79 74 72 57 54 50 47 45 46 44
187 187 190 188 182 177 173 171 165 164 162 151 136 119 111 107 109 102 94 100 105 97 74 56 52 58 56 52 49 53 56 62 71 75 67 61 52 48 43 37 34 29 26
195 195 192 195 193 191 187 186 184 180 183 182 173 154 127 114 115 112 109 90 281 263 342 16 24 34 35 36 32 40 45 53 55 44 33 28 27 30 24 14 10 9 6
202 203 200 200 202 202 200 200 201 199 200 203 205 201 189 179 199 194 155 186 240 282 281 284 303 338 355 356 358 354 350 348 351 360 347 348 360 354 345 342 344 343 342
208 207 207 207 209 212 211 210 213 216 214 218 221 224 226 233 231 238 248 260 261 260 272 281 285 299 312 317 309 308 305 298 296 306 316 320 323 320 320 325 329 331 331
209 211 211 211 216 221 223 223 223 225 227 229 231 235 236 241 249 251 256 260 267 283 284 289 292 297 300 305 305 300 296 293 289 290 298 301 304 305 309 314 316 317 317
210 211 214 215 219 226 231 231 234 237 238 240 243 241 242 245 252 260 262 264 275 280 288 289 287 288 294 297 297 298 296 294 293 293 294 295 299 302 305 307 306 307 308
212 212 215 220 223 226 232 236 240 243 245 247 249 251 251 250 251 255 263 262 264 276 285 288 291 296 298 297 297 297 296 296 293 294 295 295 297 300 303 304 304 306 310
210 210 215 221 223 227 232 236 242 247 247 249 250 250 252 253 253 255 265 260 268 278 284 291 293 292 294 295 295 299 301 300 296 292 294 289 290 297 301 301 300 302 308
209 212 216 223 225 225 232 234 238 243 246 250 250 249 251 253 250 254 256 255 262 271 277 279 282 287 290 290 292 294 302 304 301 294 291 288 290 297 301 303 300 304 303
214 215 217 221 224 224 229 233 236 242 246 251 253 255 256 253 248 252 256 253 257 265 275 277 283 285 291 290 289 290 292 295 298 300 293 288 284 276 298 299 302 300 300
220 220 220 224 226 228 233 238 242 248 251 254 257 256 252 250 251 251 255 259 261 264 266 270 275 281 281 289 284 286 288 288 285 291 280 280 278 292 296 301 299 302 300
229 228 227 228 232 233 235 239 241 242 246 246 248 251 253 255 256 256 259 264 266 264 266 268 269 271 276 276 272 269 269 260 267 278 276 287 287 298 301 305 305 303 298
236 237 237 237 238 239 235 236 240 244 246 251 255 258 256 255 257 257 260 256 256 258 262 267 273 274 273 277 274 270 270 269 269 272 278 286 291 297 292 305 298 297 291
237 238 237 238 240 242 242 239 241 242 246 248 251 255 258 258 256 254 254 259 260 262 264 265 269 271 274 275 274 273 275 273 271 268 266 276 292 297 291 295 295 286 287
235 232 232 236 239 240 241 240 239 242 247 250 253 256 257 259 259 257 257 261 261 262 263 263 266 270 274 276 278 278 280 279 280 280 279 290 293 288 291 292 292 281 288
Wind_Speed_850mb
20 18 9 8 12 16 13 15 18 20 23 22 22 23 22 22 25 27 25 25 24 29 29 31 30 29 26 26 24 23 22 22 22 22 20 21 20 21 23 22 22 25 19
26 18 14 12 16 22 16 19 18 18 20 23 17 16 18 22 26 27 27 26 23 26 26 26 24 21 20 19 17 17 17 17 17 19 20 22 21 19 25 28 25 23 18
24 21 19 15 22 26 19 18 17 18 19 21 21 22 28 26 25 25 22 21 23 22 26 26 24 23 21 19 17 16 17 17 18 18 28 30 28 27 29 28 28 32 38
27 25 22 19 28 26 17 20 23 22 23 26 32 32 27 22 22 23 22 21 19 22 27 28 27 27 26 25 25 25 24 23 22 28 30 27 27 23 25 28 27 31 36
29 29 25 21 28 25 16 23 26 28 28 29 28 33 32 30 24 22 19 16 22 24 29 29 30 30 30 29 26 25 26 28 29 33 32 29 27 27 27 23 27 30 31
32 29 25 23 21 23 18 17 22 23 26 27 26 25 25 29 31 24 15 17 16 26 26 28 28 29 29 28 28 28 30 27 35 32 31 31 26 31 28 28 23 22 18
33 29 25 21 22 21 18 18 18 22 27 28 27 26 25 26 25 24 18 17 21 25 25 26 25 26 27 27 27 27 28 28 27 26 27 25 25 27 25 27 24 20 17
32 31 26 22 21 21 19 17 18 20 24 22 22 23 22 21 21 20 16 23 22 23 24 23 22 23 25 26 26 26 26 26 26 28 27 26 25 25 25 26 25 22 19
32 31 28 24 22 21 20 18 17 18 20 18 17 16 16 16 18 15 12 18 20 21 21 20 19 20 22 24 24 24 22 22 23 24 23 21 20 22 24 23 22 21 21
36 33 30 27 23 21 19 18 16 14 15 14 13 13 13 13 12 11 8 12 16 17 16 16 16 16 17 19 20 21 21 18 19 19 18 16 16 21 21 22 22 21 21
41 37 33 30 27 24 20 18 16 14 12 10 11 10 10 10 10 9 6 7 10 10 10 11 12 13 14 15 15 17 18 17 16 15 13 16 17 18 20 20 20 20 19
48 43 37 32 30 26 23 19 17 15 12 9 8 7 7 7 7 7 5 3 4 4 5 7 9 10 11 11 11 12 13 14 13 12 11 13 14 15 16 17 17 18 18
47 46 41 36 32 28 25 22 19 16 13 10 7 5 4 4 4 5 4 2 0 1 0 2 5 6 6 7 7 7 7 8 9 9 9 9 11 11 12 14 16 17 18
50 46 42 39 35 32 27 23 20 18 15 13 10 7 5 3 4 2 2 2 1 3 4 4 4 4 6 5 6 6 5 5 5 6 8 8 9 10 12 14 16 18 18
52 49 44 41 38 35 32 28 25 23 20 18 16 12 9 8 7 7 5 4 5 5 5 6 7 8 8 8 8 7 8 8 9 10 11 10 13 15 16 18 20 24 27
55 51 46 43 39 37 35 32 29 27 25 24 22 19 17 16 14 12 12 10 9 8 8 8 9 12 14 14 14 14 13 13 14 15 16 18 18 18 19 21 24 25 27
56 51 49 43 41 40 38 36 34 31 29 28 27 26 25 22 20 18 18 17 15 13 12 13 14 14 15 16 18 19 21 21 20 20 21 21 22 23 26 28 30 31 32
50 51 46 46 43 40 39 39 39 36 35 34 33 32 31 29 27 26 24 21 18 17 17 18 19 19 20 20 21 22 24 26 27 27 27 28 28 29 31 33 34 33 36
40 42 44 44 43 40 37 37 38 40 41 38 38 36 35 34 32 29 27 22 24 26 26 26 26 25 25 26 25 25 28 29 32 32 31 30 31 32 36 34 31 33 39
42 43 43 44 43 40 38 39 39 40 41 40 42 41 40 39 31 35 32 30 30 30 29 29 30 30 30 30 32 33 35 26 28 31 31 32 32 32 24 28 35 37 34
46 49 50 51 50 47 50 49 48 47 43 40 38 43 45 39 35 36 34 34 34 35 31 31 32 30 30 31 37 35 29 29 29 26 26 29 29 21 31 39 35 38 35
51 53 54 57 55 53 54 54 51 48 47 42 38 36 36 38 39 39 40 39 38 38 39 37 38 37 35 32 35 37 32 26 33 27 27 28 26 35 36 36 37 37 34
61 59 57 54 53 55 54 55 56 56 57 53 51 43 41 42 37 41 41 43 45 43 45 42 43 43 43 40 35 35 25 21 28 32 34 37 38 35 38 36 35 38 41
62 61 56 54 55 57 57 60 63 57 60 52 47 40 38 40 39 42 44 48 47 46 49 47 44 46 45 48 49 50 53 54 39 33 48 45 48 43 38 36 47 43 41
57 58 58 57 58 58 63 63 64 62 61 55 54 50 46 44 43 43 43 41 44 48 48 45 48 51 52 52 56 61 59 63 57 61 48 41 46 46 37 46 46 38 37
56 59 60 61 60 59 59 64 67 63 61 61 60 57 53 52 52 49 46 44 40 44 43 40 42 47 45 49 56 58 56 60 60 62 64 52 46 45 41 37 36 33 29
Wind_Direction_850mb
142 140 119 115 119 126 121 116 126 132 130 118 110 102 93 93 96 94 90 86 91 98 102 97 91 85 82 80 78 80 82 80 75 71 60 62 58 59 54 48 53 60 62
141 142 118 125 115 117 113 102 116 136 140 134 122 105 92 98 102 100 98 92 95 100 97 89 81 80 76 75 73 70 67 65 62 53 44 52 51 50 51 55 57 55 52
142 128 116 117 114 110 105 91 102 125 137 138 126 104 98 98 104 101 109 108 99 95 87 80 75 72 70 68 69 66 63 57 52 50 58 57 60 55 69 70 67 62 72
137 127 114 113 116 109 116 92 97 108 123 128 123 111 101 96 101 107 103 101 90 89 88 80 71 66 66 68 68 68 67 67 71 74 72 75 65 55 68 71 64 71 74
141 132 120 115 122 129 123 96 96 102 107 119 138 138 133 120 96 91 101 103 98 90 87 77 70 66 68 70 71 71 74 79 80 71 75 76 66 59 67 74 65 82 84
144 137 126 122 127 128 116 100 93 97 108 111 115 119 125 130 117 107 100 114 118 89 83 78 74 70 70 68 71 77 79 78 74 71 71 69 72 72 67 69 74 84 96
147 143 134 130 127 124 115 106 97 94 99 108 107 105 104 123 138 125 103 101 107 96 86 81 74 68 64 62 71 75 77 75 75 74 74 74 66 62 66 62 66 66 70
155 152 145 140 133 127 121 113 109 100 106 108 100 98 96 96 104 115 102 96 100 94 84 77 70 65 60 60 70 71 74 75 71 76 77 73 68 66 63 59 60 58 59
166 161 155 152 145 138 131 125 120 107 109 102 100 97 96 89 90 105 98 93 95 87 79 72 66 64 61 63 67 70 73 75 76 76 75 73 67 62 59 55 54 55 52
174 175 168 163 156 149 143 135 131 123 117 116 107 102 97 91 85 98 83 89 91 88 80 72 67 68 65 65 65 67 68 72 77 77 72 73 67 63 57 53 50 50 49
181 183 181 175 169 163 160 153 149 145 135 125 113 106 101 100 96 100 110 94 99 93 82 71 66 62 60 60 61 63 65 69 79 79 74 72 57 54 50 47 45 46 44
187 187 190 188 182 177 173 171 165 164 162 151 136 119 111 107 109 102 94 100 105 97 74 56 52 58 56 52 49 53 56 62 71 75 67 61 52 48 43 37 34 29 26
195 195 192 195 193 191 187 186 184 180 183 182 173 154 127 114 115 112 109 90 281 263 342 16 24 34 35 36 32 40 45 53 55 44 33 28 27 30 24 14 10 9 6
202 203 200 200 202 202 200 200 201 199 200 203 205 201 189 179 199 194 155 186 240 282 281 284 303 338 355 356 358 354 350 348 351 360 347 348 360 354 345 342 344 343 342
208 207 207 207 209 212 211 210 213 216 214 218 221 224 226 233 231 238 248 260 261 260 272 281 285 299 312 317 309 308 305 298 296 306 316 320 323 320 320 325 329 331 331
209 211 211 211 216 221 223 223 223 225 227 229 231 235 236 241 249 251 256 260 267 283 284 289 292 297 300 305 305 300 296 293 289 290 298 301 304 305 309 314 316 317 317
210 211 214 215 219 226 231 231 234 237 238 240 243 241 242 245 252 260 262 264 275 280 288 289 287 288 294 297 297 298 296 294 293 293 294 295 299 302 305 307 306 307 308
212 212 215 220 223 226 232 236 240 243 245 247 249 251 251 250 251 255 263 262 264 276 285 288 291 296 298 297 297 297 296 296 293 294 295 295 297 300 303 304 304 306 310
210 210 215 221 223 227 232 236 242 247 247 249 250 250 252 253 253 255 265 260 268 278 284 291 293 292 294 295 295 299 301 300 296 292 294 289 290 297 301 301 300 302 308
209 212 216 223 225 225 232 234 238 243 246 250 250 249 251 253 250 254 256 255 262 271 277 279 282 287 290 290 292 294 302 304 301 294 291 288 290 297 301 303 300 304 303
214 215 217 221 224 224 229 233 236 242 246 251 253 255 256 253 248 252 256 253 257 265 275 277 283 285 291 290 289 290 292 295 298 300 293 288 284 276 298 299 302 300 300
220 220 220 224 226 228 233 238 242 248 251 254 257 256 252 250 251 251 255 259 261 264 266 270 275 281 281 289 284 286 288 288 285 291 280 280 278 292 296 301 299 302 300
229 228 227 228 232 233 235 239 241 242 246 246 248 251 253 255 256 256 259 264 266 264 266 268 269 271 276 276 272 269 269 260 267 278 276 287 287 298 301 305 305 303 298
236 237 237 237 238 239 235 236 240 244 246 251 255 258 256 255 257 257 260 256 256 258 262 267 273 274 273 277 274 270 270 269 269 272 278 286 291 297 292 305 298 297 291
237 238 237 238 240 242 242 239 241 242 246 248 251 255 258 258 256 254 254 259 260 262 264 265 269 271 274 275 274 273 275 273 271 268 266 276 292 297 291 295 295 286 287
235 232 232 236 239 240 241 240 239 242 247 250 253 256 257 259 259 257 257 261 261 262 263 263 266 270 274 276 278 278 280 279 280 280 279 290 293 288 291 292 292 281 288